Weather in Vyshneye Olshanoye

Russia / Oryol Oblast     52°08′09″N   37°39′11″E
temp.,
°C
wind,
m/s
gust,
m/s
humid.,
%
clouds,
%
prec.,
mm/h
press.,
hPa
HPBL,
m
27 november, sat
sat2700:00−1s512805 0.0 1016299
03:00−2sse5128499 0.0 1014270
06:00−1sse61591100 0.0 1013394
09:00+1sse71781100 0.0 1011516
12:00+3sse91976100 0.0 1009768
15:00+2sse91989100 1.1 1006798
18:00+2sse91792100 1.1 1005665
21:00+3s71493100 1.5 1005473
28 november, sun
sun2800:00+3s51296100 0.0 1005316
03:00+4s5109764 0.1 1005254
06:00+4s389999 0.0 1005258
09:00+5sw4695100 0.0 1007254
12:00+5ssw3694100 0.0 1008356
15:00+6ssw2490100 0.0 1009191
18:00+6s3487100 0.0 1010118
21:00+6sse5785100 0.0 1010296
29 november, mon
mon2900:00+4se41094100 0.0 1009229
03:00+4se51196100 0.0 1007252
06:00+6ese51198100 1.0 1004278
09:00+7se81596100 6.8 1000521
12:00+9s61397100 1.6 999561
15:00+9s61396100 2.0 997537
18:00+9sse61292100 0.1 995526
21:00+10sse71595100 4.9 989667
30 november, tue
tue3000:00+10ssw71593100 12.6 983793
03:00+10ssw91585100 18.0 982960
06:00+5wsw121886100 1.5 9861077
09:00+2wsw111772100 1.5 9911229
12:00+3wsw111761100 0.0 9931341
15:00+2sw9166896 0.0 9931332
18:00+2sw91672100 0.0 9941450
21:00+1sw10167393 0.1 9941144
1 december, wed
wed100:00−1wsw8137681 0.0 994958
03:00−1wsw7127581 0.0 995909
06:00−1w8127790 0.0 995978
09:00−1w71177100 0.1 9971101
12:00−1w71176100 0.3 9991079
15:00−1w7116595 0.3 10001049
18:00−2w610745 0.0 1003726
21:00−3w510775 0.0 1004531